Starlink 35234

operational
NORAD ID: 65601 Int'l Des: 2025-207 Owner: SPXS Country: US Constellation: starlink
NOTLE

关于 Starlink 35234

正在加载描述...

实时位置

正在加载3D地球...

即将过境

高度历史

Altitude vs Time

uPlot chart will show altitude changes over time

两行轨道根数

1 65601U 25207K 25354.58336806 -.02539605 00000-0 -10246+0 0 9996
2 65601 97.6052 60.5827 0001137 84.3932 171.8867 15.28404519 5886
Epoch: Dec 20, 2025 • Age: 6 hours

当前状态

高度 513.5 km
速度 7.61 km/s
星下点 -79.69°S, 72.36°E
发射日期 Sep 13, 2025
运行时间 0.2 years
类型 internet

技术详情

分类 Payload
质量 575.00 kg
干质量 530.00 kg
总质量 575.00 kg
长度 0.30 m
直径 4.10 m
跨度 29.00 m
形状 Box + pan
制造商 SPXS
平台类型 Starlink V2MO
阶段状态 In Orbit
所有者/国家 SPXS/US

大型星座

Loading constellations...